Regional Weather Roundup
Issued by NWS Burlington, VT

Home | Current Version | Previous Version | Text Only | Print | Product List | Glossary On
Versions: 1 2 3 4 5 6 7 8 9 10 11 12 13 14 15 16 17 18 19 20 21 22 23 24 25 26 27 28 29 30 31 32 33 34 35 36 37 38 39 40 41 42 43 44 45 46 47 48 49 50
000
ASUS41 KBTV 091410
RWRBTV
VERMONT REGIONAL WEATHER ROUNDUP
NATIONAL WEATHER SERVICE BURLINGTON VT
900 AM EST TUE FEB 09 2016

NOTE: "FAIR" INDICATES FEW OR NO CLOUDS BELOW 12,000 FEET WITH NO
SIGNIFICANT WEATHER AND/OR OBSTRUCTIONS TO VISIBILITY.

* THESE REPORTS ARE NOT UNDER NWS QUALITY CONTROL AND/OR DO NOT
  REPORT WEATHER SUCH AS PRECIPITATION AND FOG.

VTZ001>019-091500-
_____VERMONT_____


CITY           SKY/WX    TMP DP  RH WIND       PRES   REMARKS
BURLINGTON     PTSUNNY   23  14  68 SE7       29.67F WCI  15
MONTPELIER     CLOUDY    17  14  88 CALM      29.66F
MORRISVILLE    CLOUDY    20  14  77 NW3       29.67F
ST. JOHNSBURY*   N/A     20  13  74 MISG      29.64F
LYNDONVILLE*   LGT SNOW  17  13  86 CALM      29.64F
RUTLAND*       FAIR      19  10  68 SE7       29.65S WCI  10
SPRINGFIELD    CLOUDY    20  12  71 SE5       29.70R WCI  13
HIGHGATE*      LGT SNOW  20  16  82 E3        29.69S
NEWPORT*       LGT SNOW  15  11  86 N5        29.66F WCI   7
BENNINGTON     CLOUDY    22  14  71 VRB3      29.65R
SUTTON*          N/A     16 N/A N/A MISG        N/A

_____LAKE CHAMPLAIN_____


CITY           SKY/WX    TMP DP  RH WIND       PRES   REMARKS

$$

NYZ007-026>031-035-052-083-091500-
_____NORTHERN NEW YORK_____


CITY           SKY/WX    TMP DP  RH WIND       PRES   REMARKS
PLATTSBURGH    LGT SNOW  20  16  84 N9        29.68F FOG     WCI   9
SARANAC LAKE   CLOUDY    16  12  84 NE6       29.53F WCI   7
MASSENA        LGT SNOW  19  12  74 NE14      29.69S WCI   6
OGDENSBURG*    CLOUDY    21  18  86 E10       29.64S FOG     WCI  10
WATERTOWN      CLOUDY    27  23  85 NE8       29.58F FOG     WCI  19
ALBANY         LGT SNOW  25  19  78 S10       29.69S WCI  15
GLENS FALLS    CLOUDY    23  18  81 E3        29.67S

$$
NHZ002-005-011-091500-
_____NEW HAMPSHIRE_____


CITY           SKY/WX    TMP DP  RH WIND       PRES   REMARKS
LEBANON        CLOUDY    19  16  88 CALM      29.69R
MT WASHINGTON  PTSUNNY   10   7  85 NW15        N/A  WCI  -6
PLYMOUTH       FAIR      21  15  77 SE3       29.69R
WHITEFIELD     CLOUDY    20  10  65 E12       29.62F WCI   8

$$

_____REGIONAL QUEBEC LOCATIONS_____


CITY           SKY/WX    TMP DP  RH WIND       PRES   REMARKS
MONTREAL       LGT SNOW  18  12  79 NE13G18   29.71F DRFTSNOWWCI   4
QUEBEC CITY    LGT SNOW  16  10  79 E13       29.79F DRFTSNOWWCI   2
SHERBROOKE     FLURRIES  14  10  85 NE7       29.69F WCI   4

_____REGIONAL ONTARIO LOCATIONS_____


CITY           SKY/WX    TMP DP  RH WIND       PRES   REMARKS
OTTAWA         LGT SNOW  16  12  86 E15       29.67S WCI   1

______KEY______
VSB  - VISIBILITY IN MILES
WCI  - WIND CHILL INDEX
HX   - HEAT INDEX
$$
NNNN



USA.gov is the U.S. government's official web portal to all federal, state and local government web resources and services.